www.pogodaiklimat.ru

Погода и климат >> Архив погоды >> Россия >> Камчатский край >> Апука


АРХИВ ПОГОДЫ в Апуке

Время (UTC), дата Ветер
(напр.,м/с)
 
Видим.   Явления Облачность Т
(С)
Тd
(С)
f
(%)
Тe
(С)
Тes
(С)
Комфортность P
(гПа)
Po
(гПа)
Тmin
(С)
Tmax
(С)
R
(мм)
R24
(мм)
S
(см)
09 17.04 С 8
{12}
50 км ясно -1.0 -7.7 60 -8 -8 1019.9 1019.3 +1.8
12 17.04 В 7 50 км 3/3 600 м
[Sc]
-2.1 -8.7 61 -9 -9 1020.6 1020.0
15 17.04 СВ 5 50 км 3/3 600 м
[Sc]
-3.5 -10.2 60 -10 -10 1020.4 1019.8
18 17.04 штиль 0 50 км ?/? -6.1 -11.2 67 -7 -7 1022.0 1021.4
21 17.04 ЮВ 1 50 км ясно -0.9 -8.4 57 -2 +3 1021.7 1021.1 -8.0 66
00 18.04 В 6 50 км ясно +1.7 -6.8 53 -4 0 1021.7 1021.1
03 18.04 З 3 50 км ясно +1.0 -4.2 68 -3 +3 1021.7 1021.1
06 18.04 З 3 50 км ясно +0.5 -3.8 73 -4 -3 1022.3 1021.7
09 18.04 З 1 50 км ясно -1.7 -4.3 82 -4 -4 1023.3 1022.7 +2.3
12 18.04 СВ 3 50 км ясно -7.0 -9.5 82 -13 -13 1023.7 1023.1
15 18.04 СВ 3 50 км ясно -7.3 -9.4 85 -13 -13 1023.9 1023.3
18 18.04 СВ 3 50 км 4/0
[Ci fib]
-8.1 -9.9 87 -14 -14 1023.9 1023.3
21 18.04 В 2 50 км 9/9 600 м
[Sc]
-3.4 -6.1 82 -7 -7 1024.1 1023.5 -9.2 65
00 19.04 ЮЗ 3 50 км 9/9 600 м
[Sc]
-0.6 -2.7 86 -5 -5 1023.7 1023.1
03 19.04 З 4 50 км 10/10 600 м
[Sc]
+0.3 -2.4 82 -5 -5 1022.9 1002.3
06 19.04 З 4 50 км 6/6 600 м
[Sc]
+0.1 -2.3 84 -5 -5 1022.1 1021.5
09 19.04 ЮЗ 5 50 км 10/10 600 м
[Sc]
+0.1 -1.3 90 -6 -6 1021.7 1021.1 +0.6
12 19.04 СЗ 4 50 км 4/4 600 м
[Sc]
+0.5 -1.2 88 -5 -5 1021.1 1020.5
15 19.04 СЗ 7 50 км ясно +1.3 -3.9 68 -5 -5 1020.7 1020.1
18 19.04 С 5
{15}
50 км ясно -1.1 -5.4 73 -7 -7 1020.9 1020.3
21 19.04 СЗ 5 50 км 3/0
[Ci fib]
+1.6 -4.6 63 -4 -1 1021.0 1020.4 -2.6 63
00 20.04 З 2 50 км ясно +4.0 -3.9 56 +2 +12 опасность
простуды
1021.1 1020.5
03 20.04 СЗ 4 50 км ясно +3.9 -4.1 56 0 +5 1020.5 1019.9
06 20.04 З 5 50 км ясно +2.3 -2.3 72 -3 -2 1020.3 1019.7
09 20.04 З 4 50 км 8/0
[Ci fib]
+1.8 -1.3 80 -3 -3 1020.3 1019.7 +4.3
12 20.04 ЮЗ 3 50 км 4/4 600 м
[Sc]
+0.6 -1.1 88 -4 -4 1018.2 1017.6
15 20.04 СВ 1 20 км 8/8 600 м
[Sc]
+1.3 -1.6 81 -0 -0 1016.5 1015.9
18 20.04 ЮВ 8
{14}
50 км 9/6 600 м
[Sc Ci fib]
+0.9 -3.3 73 -6 -6 1017.0 1016.4
21 20.04 С 8
{14}
50 км 9/6 600 м
[Sc Ci fib]
+1.3 -3.5 70 -6 -5 1017.6 1017.0 +0.3 62
00 21.04 СЗ 10-14
{14}
50 км 4/4 600 м
[Sc]
+3.3 -4.5 57 -3 -3 1017.4 1016.8
03 21.04 СЗ 9-13
{14}
50 км 3/3 600 м
[Sc]
+3.5 -5.8 51 -3 -2 1018.0 1017.4
06 21.04 СЗ 9-12
{14}
50 км ясно +2.4 -6.7 51 -4 -4 1018.6 1018.0
09 21.04 С 5
{12}
50 км ясно -1.0 -7.7 60 -7 -7 1020.6 1020.0 +4.0
12 21.04 СВ 3 50 км ясно -4.4 -6.6 85 -10 -10 1021.8 1021.2
15 21.04 СВ 3 50 км 3/3 600 м
[Sc]
-2.9 -7.6 70 -8 -8 1022.4 1021.8
18 21.04 В 3 50 км 9/6 600 м
[Sc Ci fib]
-6.2 -8.2 86 -12 -12 1022.5 1021.9
21 21.04 СВ 5 50 км 1/1 600 м
[Sc]
-2.4 -8.7 62 -9 -6 1022.7 1022.1 -6.4 62
00 22.04 З 3 50 км ясно -0.9 -8.4 57 -5 +3 1022.1 1021.5
03 22.04 З 6 50 км ясно +0.5 -6.9 58 -5 -2 1020.8 1020.0
06 22.04 СЗ 4 50 км ясно +1.7 -6.0 57 -3 -1 1020.4 1019.8
09 22.04 СЗ 7 50 км ясно -1.8 -7.0 68 -9 -9 1020.2 1019.6 +2.1
12 22.04 В 4 50 км ясно -3.1 -9.7 60 -9 -9 1020.5 1019.9
15 22.04 В 2 50 км ясно -6.5 -10.8 71 -11 -11 1020.5 1019.9
18 22.04 СВ 6 50 км ясно -8.7 -11.6 79 -17 -17 1020.9 1020.3
21 22.04 В 8 50 км ясно -3.8 -11.2 56 -12 -11 1021.4 1020.8 -9.5 61
00 23.04 В 4 50 км 8/8 600 м
[Sc]
-0.6 -7.1 61 -6 -4 1022.1 1021.5
03 23.04 ЮВ 6 50 км 4/4 600 м
[Sc]
0.0 -5.1 68 -6 -4 1022.5 1021.9
06 23.04 ЮВ 6 50 км ясно -1.1 -5.8 70 -8 -7 1022.9 1022.3
09 23.04 В 2 50 км ясно -4.9 -7.9 79 -9 -9 1023.6 1023.0 +0.7
12 23.04 СВ 3 50 км 3/3 600 м
[Sc]
-7.4 -9.5 85 -13 -13 1023.6 1023.0
15 23.04 В 3 20 км 6/6 600 м
[Sc]
-6.9 -9.0 85 -13 -13 1023.0 1022.4
18 23.04 В 3 20 км 10/10 600 м
[Sc]
-5.1 -7.2 85 -11 -11 1022.8 1022.2
21 23.04 В 6 50 км 9/9 600 м
[Sc]
-3.3 -7.2 74 -11 -10 1022.6 1022.0 -8.0 61
00 24.04 ЮВ 2 50 км 9/9 600 м
[Sc]
+0.8 -4.2 69 -2 -1 1022.2 1021.6 -0.8
03 24.04 Ю 4 50 км 4/4 600 м
[Sc]
+0.9 -2.1 80 -4 -1 1021.4 1020.8
06 24.04 ЮЗ 3 50 км 9/6 600 м
[Sc Ci fib]
+0.6 -1.9 83 -4 -3 1021.3 1020.7

 

Местоположение метеостанции Апука (Камчатский край, Россия): широта 60.43 долгота 169.60 высота над уровнем моря 5 м.

В архиве по умолчанию представлена погода в Апуке за последнюю неделю. Архивные данные за месяц целиком и за предыдущие месяцы, начиная с января 2011 года, Вы можете получить, выбрав интересующий диапазон дат из раскрывающегося списка и нажав кнопку "Ввод!".


*Определитесь, кто Вы:
робот инопланетянин человек

Внимание! Время в таблицах - всемирное. Для получения местного времени необходимо прибавить поправку, которая равна 12 ч.

Смотрите также архив погоды в соседних городах и на ближайших метеорологических станциях:

Погода в Тиличиках (Камчатский край, Россия) (198 км)
Погода в Каменском (Камчатский край, Россия) (291 км)
Погода в Слаутном (Камчатский край, Россия) (322 км)
Погода в Чемурнауте (Камчатский край, Россия) (362 км)
Погода в Оссоре (Камчатский край, Россия) (392 км)
Погода в Марково (Чукотка, Россия) (474 км)
Погода на Мысе Озерном (Камчатский край, Россия) (479 км)
Погода в Верхне-Пенжино (Камчатский край, Россия) (505 км)
Погода в Танюрере (Чукотка, Россия) (551 км)
Погода в Палане (Камчатский край, Россия) (563 км)

Пояснения к столбцам:

Ветер - указаны скорость ветра в м/с - средняя за 10 мин, порывы в срок и между сроками (в фигурных скобках) и направление, откуда дует ветер: С - северный, СВ - северо-восточный, В - восточный, ЮВ - юго-восточный, Ю - южный, ЮЗ - юго-западный, З - западный, СЗ - северо-западный.
Видимость - горизонтальная дальность видимости в метрах или километрах. При видимости от 1 до 10 км при отсутствии осадков обычно наблюдается дымка, при ухудшении видимости до 1 км и менее - туман. В сухую погоду видимость может ухудшаться дымом, пылью или мглою.
Явления - указаны атмосферные явления, наблюдавшиеся в срок или в последний час перед сроком; фигурными скобками обозначены явления, наблюдавшиеся между сроками (за 1-3 часа до срока); квадратными скобками обозначены град или гололедные отложения с указанием их диаметра в мм.
Облачность - указаны через наклонную черту общая и нижняя облачность в баллах и высота нижней границы облаков в метрах; квадратными скобками обозначены формы облаков: Ci - перистые, Cs - перисто-слоистые, Cc - перисто-кучевые, Ac - высококучевые, As - высокослоистые, Sc - слоисто-кучевые, Ns - слоисто-дождевые, Cu - кучевые, Cb - кучево-дождевые. Подробнее классификацию облаков см. в Атласе облаков (PDF).
T - Температура воздуха - температура, измеренная на высоте 2 м над землей.
Td - Температура точки росы - температура, при понижении до которой содержащийся в воздухе водяной пар достигнет насыщения.
f - Относительная влажность воздуха - влажноcть воздуха, измеренная на высоте 2 м над землей.
Te - Эффективная температура - температура, которую ощущает одетый по сезону человек в тени. Характеристика душности погоды. При расчете учитывается влияние влажности воздуха и скорости ветра на теплоощущения человека.
Tes - Эффективная температура на солнце - температура, которую ощущает человек, с поправкой на солнечный нагрев. Характеристика знойности погоды. Зависит от высоты солнца над горизонтом, облачности и скорости ветра. Ночью, в пасмурную погоду, а также при ветре 12 м/с и более поправка равна нулю.
P - Атмосферное давление - приведенное к уровню моря атмосферное давление.
Po - Атмосферное давление - измеренное на уровне метеостанции атмосферное давление.
Tmin - Минимальная температура - минимум температуры воздуха на высоте 2 м над землей.
Tmax - Максимальная температура - максимум температуры воздуха на высоте 2 м над землей.
R - Количество осадков - Количество выпавших осадков за период времени, мм. При наведении курсора мыши на число - период времени, за который выпало указанное количество осадков.
R24 - Количество осадков - Количество выпавших осадков за 24 часа, мм.
S - Снежный покров - Высота снежного покрова, см. При наведении курсора мыши на число - состояние снежного покрова и степень покрытия местности в баллах.